Binghamton, NY

10:24 PM EDT on October 17, 2019 (GMT -0400)
Binghamton Regional-Link

Weather History for KBGM - July, 2019

Change the Weather History Date:

Monday, July 22, 2019

  Actual Average Record
Temperature  
Mean Temperature 66 °F 69 °F  
Max Temperature 70 °F 78 °F 95 °F (1955)
Min Temperature 61 °F 60 °F 49 °F (1970)
Degree Days  
Heating Degree Days 0 1  
Month to date heating degree days 0 22  
Since 1 June heating degree days 94 113  
Since 1 July heating degree days 0 22  
Cooling Degree Days 1 5  
Month to date cooling degree days 160 101  
Year to date cooling degree days 213 198  
Since 1 June cooling degree days 206 175  
Growing Degree Days 15 (Base 50)    
Moisture  
Dew Point 60 °F    
Average Humidity 84    
Maximum Humidity 100    
Minimum Humidity 68    
Precipitation  
Precipitation 0.69 in 0.11 in 1.08 in (2013)
Month to date precipitation 2.69 2.64  
Year to date precipitation 24.76 21.70  
Snow  
Snow 0.00 in 0.00 in 0.00 in (2002)
Month to date snowfall 0.0 0.0  
Since 1 June snowfall 0.0 0.0  
Since 1 July snowfall 0.0 0.0  
Snow Depth 0.00 in    
Sea Level Pressure  
Sea Level Pressure 29.86 in    
Wind  
Wind Speed 6 mph (NNE)    
Max Wind Speed 12 mph    
Max Gust Speed 15 mph    
Visibility 8 miles    
Events Rain    
T = Trace of Precipitation, MM = Missing Value Source: NWS Daily Summary

Daily Weather History Graph

Daily Weather History Graph

Search for Another Location

Airport or City:

Astronomy

Jul. 22, 2019 Rise Set
Actual Time 5:46 AM EDT 8:33 PM EDT
Civil Twilight 5:14 AM EDT 9:06 PM EDT
Nautical Twilight 4:32 AM EDT 9:47 PM EDT
Astronomical Twilight 3:45 AM EDT 10:34 PM EDT
Moon 11:47 PM EDT (7/22) 11:06 AM EDT (7/22)
Length of Visible Light 15h 51m
Length of Day
14h 46m
Waning Gibbous, 72% of the Moon is Illuminated
Jul 22
Waning Gibbous
Jul 24
Last Quarter
Jul 31
New
Aug 7
First Quarter
Aug 15
Full

Hourly Weather History & Observations

Time (EDT) Temp. Dew Point Humidity Pressure Visibility Wind Dir Wind Speed Gust Speed Precip Events Conditions
12:53 AM 68.0 °F 57.0 °F 68% 29.91 in 10.0 mi Calm Calm - N/A   Clear
1:53 AM 68.0 °F 57.9 °F 70% 29.92 in 10.0 mi South 4.6 mph - N/A   Overcast
2:53 AM 68.0 °F 57.9 °F 70% 29.91 in 10.0 mi SSE 3.5 mph - N/A   Partly Cloudy
3:53 AM 66.9 °F 59.0 °F 76% 29.88 in 10.0 mi Calm Calm - N/A   Clear
4:53 AM 66.9 °F 57.9 °F 73% 29.86 in 10.0 mi Calm Calm - N/A   Scattered Clouds
5:53 AM 66.9 °F 57.9 °F 73% 29.86 in 10.0 mi Calm Calm - N/A   Partly Cloudy
6:53 AM 66.9 °F 57.9 °F 73% 29.88 in 10.0 mi Calm Calm - N/A   Mostly Cloudy
7:53 AM 66.9 °F 59.0 °F 76% 29.88 in 10.0 mi Calm Calm - N/A   Overcast
8:53 AM 68.0 °F 57.9 °F 70% 29.88 in 10.0 mi ESE 3.5 mph - N/A   Mostly Cloudy
9:53 AM 68.0 °F 60.1 °F 76% 29.89 in 10.0 mi NNW 9.2 mph - N/A   Overcast
10:07 AM 64.9 °F 63.0 °F 93% 29.95 in 2.5 mi NW 8.1 mph - 0.02 in Rain Rain
10:53 AM 62.1 °F 60.1 °F 93% 29.91 in 2.0 mi North 8.1 mph - 0.19 in Rain Rain
11:28 AM 62.1 °F 60.1 °F 93% 29.90 in 2.0 mi ENE 9.2 mph - 0.11 in Rain Rain
11:53 AM 62.1 °F 61.0 °F 96% 29.87 in 2.0 mi ENE 9.2 mph - 0.20 in Rain Light Rain
12:02 PM 62.1 °F 61.0 °F 96% 29.90 in 5.0 mi ENE 6.9 mph - 0.00 in Rain Light Rain
12:34 PM 63.0 °F 61.0 °F 93% 29.90 in 10.0 mi NE 4.6 mph - 0.01 in Rain Light Rain
12:53 PM 63.0 °F 61.0 °F 93% 29.87 in 10.0 mi NE 6.9 mph - 0.01 in   Overcast
1:53 PM 63.0 °F 61.0 °F 93% 29.85 in 10.0 mi East 5.8 mph - 0.00 in Rain Light Rain
2:02 PM 63.0 °F 61.0 °F 93% 29.87 in 9.0 mi East 5.8 mph - 0.00 in Rain Light Rain
2:17 PM 63.0 °F 60.1 °F 90% 29.87 in 9.0 mi ENE 9.2 mph - 0.00 in Rain Light Rain
2:53 PM 62.1 °F 60.1 °F 93% 29.85 in 10.0 mi ENE 6.9 mph - 0.00 in   Overcast
3:19 PM 62.1 °F 61.0 °F 96% 29.86 in 1.8 mi NNE 8.1 mph - 0.00 in Rain Light Rain
3:46 PM 61.0 °F 60.1 °F 97% 29.85 in 1.0 mi NNE 6.9 mph - 0.18 in Rain Rain
3:53 PM 61.0 °F 60.1 °F 97% 29.83 in 2.5 mi NNE 6.9 mph - 0.19 in Rain Light Rain
4:21 PM 61.0 °F 60.1 °F 97% 29.84 in 6.0 mi NNE 9.2 mph - 0.02 in Rain Light Rain
4:53 PM 61.0 °F 60.1 °F 97% 29.81 in 4.0 mi East 9.2 mph - 0.05 in Rain Light Rain
5:11 PM 61.0 °F 60.1 °F 97% 29.83 in 6.0 mi East 8.1 mph - 0.02 in Rain Light Rain
5:53 PM 62.1 °F 61.0 °F 96% 29.79 in 10.0 mi NE 6.9 mph - 0.04 in   Overcast
6:11 PM 62.1 °F 61.0 °F 96% 29.82 in 10.0 mi NNE 6.9 mph - N/A   Overcast
6:53 PM 63.0 °F 61.0 °F 93% 29.81 in 10.0 mi North 6.9 mph - 0.00 in   Overcast
7:53 PM 62.1 °F 61.0 °F 96% 29.82 in 10.0 mi North 9.2 mph - 0.01 in Rain Light Rain
8:06 PM 62.1 °F 61.0 °F 96% 29.84 in 10.0 mi North 9.2 mph - 0.00 in   Overcast
8:25 PM 62.1 °F 61.0 °F 96% 29.85 in 10.0 mi North 9.2 mph - 0.00 in   Overcast
8:44 PM 62.1 °F 61.0 °F 96% 29.85 in 10.0 mi North 9.2 mph - 0.00 in   Overcast
8:53 PM 62.1 °F 61.0 °F 96% 29.83 in 10.0 mi North 9.2 mph - 0.00 in   Overcast
9:05 PM 62.1 °F 61.0 °F 96% 29.85 in 10.0 mi NNW 10.4 mph - N/A   Overcast
9:28 PM 62.1 °F 61.0 °F 96% 29.86 in 5.0 mi North 9.2 mph - N/A   Overcast
9:53 PM 62.1 °F 60.1 °F 93% 29.84 in 6.0 mi North 9.2 mph - N/A   Overcast
10:53 PM 62.1 °F 60.1 °F 93% 29.85 in 10.0 mi NNE 6.9 mph - N/A   Overcast
11:19 PM 62.1 °F 60.1 °F 93% 29.85 in 10.0 mi NNE 10.4 mph - N/A   Overcast
11:53 PM 62.1 °F 60.1 °F 93% 29.84 in 10.0 mi NNE 8.1 mph - N/A   Overcast